FW5436 Weather Reports


Display with metric or nautical units.
time (UTC)temp
F
wind
direction
speed
MPH
gust
MPH
rain 1hr
in
rain 24hr
in
rain mn
in
humidity
%
barometer
mb
20260502211454 54 45 2.0 7.0 0.00 0.00 0.00 57 1022.5
20260502210943 55 338 2.0 8.0 0.00 0.00 0.00 57 1022.1
20260502210432 55 0 2.0 8.0 0.00 0.00 0.00 55 1022.1
20260502205922 55 68 2.0 6.0 0.00 0.00 0.00 54 1022.2
20260502205412 56 45 2.0 6.0 0.00 0.00 0.00 53 1022.3
20260502204902 56 68 2.0 4.0 0.00 0.00 0.00 52 1022.2
20260502203332 58 135 2.0 7.0 0.00 0.00 0.00 50 1021.8
20260502202822 58 23 2.0 6.0 0.00 0.00 0.00 49 1021.9
20260502202312 59 203 1.0 7.0 0.00 0.00 0.00 48 1021.8
20260502201801 59 68 2.0 7.0 0.00 0.00 0.00 48 1021.7
20260502201251 59 90 2.0 7.0 0.00 0.00 0.00 46 1021.8
20260502195721 59 23 2.0 9.0 0.00 0.00 0.00 45 1021.5
20260502195211 60 68 4.0 9.0 0.00 0.00 0.00 46 1021.6
20260502194150 60 45 2.0 13.0 0.00 0.00 0.00 49 1021.5
20260502193130 61 315 3.0 7.0 0.00 0.00 0.00 47 1021.3
20260502192621 60 68 2.0 11.0 0.00 0.00 0.00 45 1021.2
20260502192109 59 270 4.0 11.0 0.00 0.00 0.00 46 1021.2
20260502190540 60 68 4.0 13.0 0.00 0.00 0.00 44 1021.2
20260502190029 62 68 3.0 13.0 0.00 0.00 0.00 41 1021.0
20260502185009 61 45 4.0 14.0 0.00 0.00 0.00 44 1021.0
20260502183439 62 0 4.0 9.0 0.00 0.00 0.00 45 1020.8
20260502182928 61 45 2.0 9.0 0.00 0.00 0.00 49 1020.7
20260502182419 61 0 2.0 11.0 0.00 0.00 0.00 49 1020.7
20260502181911 60 315 3.0 11.0 0.00 0.00 0.00 50 1020.6
20260502181357 61 90 2.0 7.0 0.00 0.00 0.00 50 1020.6
20260502180849 61 270 2.0 13.0 0.00 0.00 0.00 48 1020.5
20260502180337 60 90 2.0 13.0 0.00 0.00 0.00 49 1020.6
20260502163545 60 203 4.0 11.0 0.00 0.00 0.00 53 1020.1
20260502163037 59 45 3.0 15.0 0.00 0.00 0.00 53 1020.2
20260502162525 59 338 5.0 15.0 0.00 0.00 0.00 53 1020.1
20260502162014 59 68 4.0 11.0 0.00 0.00 0.00 53 1020.4
20260502161514 59 23 3.0 11.0 0.00 0.00 0.00 54 1020.2
20260502160955 60 68 4.0 11.0 0.00 0.00 0.00 52 1020.3
20260502160444 60 135 7.0 11.0 0.00 0.00 0.00 52 1020.4
20260502152323 58 23 3.0 11.0 0.00 0.00 0.00 56 1020.9
20260502151813 58 68 2.0 14.0 0.00 0.00 0.00 56 1020.8
20260502150752 57 45 2.0 11.0 0.00 0.00 0.00 57 1020.8
20260502150242 57 248 4.0 14.0 0.00 0.00 0.00 58 1020.6
20260502130350 53 315 5.0 11.0 0.00 0.00 0.00 69 1020.6
20260502123758 51 90 4.0 14.0 0.00 0.00 0.00 72 1020.2
20260502123249 51 248 3.0 14.0 0.00 0.00 0.00 74 1020.3
20260502122738 50 135 2.0 11.0 0.00 0.00 0.00 75 1020.1
20260502122228 50 45 5.0 11.0 0.00 0.00 0.00 75 1020.3
20260502121207 50 315 5.0 11.0 0.00 0.00 0.00 76 1020.1
20260502120657 50 248 4.0 11.0 0.00 0.00 0.00 76 1020.0
20260502120147 49 23 4.0 11.0 0.00 0.00 0.00 76 1019.9
20260502115637 49 0 3.0 9.0 0.00 0.00 0.00 76 1019.6
20260502115127 49 270 4.0 9.0 0.00 0.00 0.00 77 1019.5
20260502114106 49 68 2.0 9.0 0.00 0.00 0.00 77 1019.2
20260502113557 48 315 3.0 9.0 0.00 0.00 0.00 78 1019.1
20260502113046 48 338 4.0 9.0 0.00 0.00 0.00 79 1019.2
20260502112537 47 23 3.0 8.0 0.00 0.00 0.00 80 1019.0
20260502112026 47 68 2.0 7.0 0.00 0.00 0.00 81 1018.9
20260502111515 46 338 2.0 11.0 0.00 0.00 0.00 82 1018.8
20260502110455 46 68 3.0 11.0 0.00 0.00 0.00 83 1018.8
20260502105946 46 113 2.0 8.0 0.00 0.00 0.00 84 1018.6
20260502104925 46 90 2.0 9.0 0.00 0.00 0.00 85 1018.4
20260502104416 46 113 2.0 6.0 0.00 0.00 0.00 85 1018.2
20260502103904 46 248 2.0 7.0 0.00 0.00 0.00 85 1018.5
20260502103354 46 45 2.0 7.0 0.00 0.00 0.00 85 1018.1
20260502102844 46 68 1.0 7.0 0.00 0.00 0.00 85 1018.0
20260502102335 46 180 1.0 7.0 0.00 0.00 0.00 85 1017.9
20260502101824 46 90 2.0 7.0 0.00 0.00 0.00 85 1017.8
20260502100804 46 23 2.0 7.0 0.00 0.00 0.00 84 1017.9
20260502100255 47 135 2.0 7.0 0.00 0.00 0.00 84 1017.8
20260502090602 47 45 2.0 6.0 0.00 0.00 0.00 84 1016.9
20260502071223 51 135 2.0 4.0 0.00 0.00 0.00 77 1015.8
20260502070222 51 68 1.0 6.0 0.00 0.00 0.00 77 1015.5
20260502065711 51 270 2.0 6.0 0.00 0.00 0.00 77 1015.4
20260502065201 51 68 2.0 6.0 0.00 0.00 0.00 77 1015.5
20260502064650 51 90 2.0 6.0 0.00 0.00 0.00 76 1015.5
20260502064141 51 68 2.0 4.0 0.00 0.00 0.00 76 1015.4
20260502063630 52 23 2.0 8.0 0.00 0.00 0.00 77 1015.4
20260502063120 52 45 2.0 8.0 0.00 0.00 0.00 76 1015.2
20260502062610 52 23 2.0 6.0 0.00 0.00 0.00 76 1015.3
20260502062100 52 23 2.0 6.0 0.00 0.00 0.00 76 1015.1
20260502061550 52 338 3.0 9.0 0.00 0.00 0.00 76 1015.3
20260502061040 53 0 2.0 9.0 0.00 0.00 0.00 76 1015.4
20260502060538 53 45 2.0 7.0 0.00 0.00 0.00 75 1015.3
20260502060019 53 23 2.0 7.0 0.00 0.00 0.00 75 1015.4
20260502055509 53 68 3.0 7.0 0.00 0.00 0.00 75 1015.4
20260502055000 53 293 2.0 4.0 0.00 0.00 0.00 74 1015.5
20260502054448 54 45 1.0 6.0 0.00 0.00 0.00 74 1015.2
20260502053938 54 45 2.0 6.0 0.00 0.00 0.00 73 1015.1
20260502053429 54 68 2.0 0.0 0.00 0.00 0.00 73 1015.2
20260502052848 55 113 2.0 6.0 0.00 0.00 0.00 72 1015.0
20260502052337 55 0 2.0 4.0 0.00 0.00 0.00 72 1015.0
20260502051828 55 90 2.0 6.0 0.00 0.00 0.00 72 1014.9
20260502051317 55 0 2.0 6.0 0.00 0.00 0.00 72 1014.8
20260502050807 55 203 2.0 6.0 0.00 0.00 0.00 73 1014.6
20260502050302 55 68 2.0 8.0 0.00 0.00 0.00 73 1014.8
20260502045746 56 45 2.0 8.0 0.00 0.00 0.00 74 1014.7
20260502045236 56 158 2.0 6.0 0.00 0.00 0.00 74 1014.6
20260502044726 56 135 2.0 4.0 0.00 0.00 0.00 74 1014.9
20260502043707 56 180 2.0 4.0 0.00 0.00 0.00 73 1014.3
20260502042647 57 23 2.0 6.0 0.00 0.00 0.00 74 1014.4
20260502042136 57 23 2.0 6.0 0.00 0.00 0.00 75 1014.0
20260502041627 57 113 2.0 6.0 0.00 0.00 0.00 75 1014.3
20260502041116 57 90 2.0 6.0 0.00 0.00 0.00 77 1014.3
20260502040055 57 90 2.0 6.0 0.00 0.00 0.00 78 1014.0
20260502035036 58 45 0.0 6.0 0.00 0.00 0.00 79 1013.3
20260502034016 58 45 0.0 4.0 0.00 0.00 0.00 79 1012.8
20260502033505 58 68 1.0 7.0 0.00 0.00 0.00 79 1013.7
20260502032959 58 0 2.0 7.0 0.00 0.00 0.00 79 1013.7
20260502032444 58 248 1.0 4.0 0.00 0.00 0.00 80 1013.2
20260502031423 58 158 2.0 4.0 0.00 0.00 0.00 80 1013.3
20260502030914 58 315 3.0 4.0 0.00 0.00 0.00 80 1013.6
20260502030408 58 90 2.0 4.0 0.00 0.00 0.00 80 1013.4
20260502025854 58 225 2.0 7.0 0.00 0.00 0.00 80 1013.2
20260502025347 58 45 2.0 7.0 0.00 0.00 0.00 81 1013.1
20260502024833 58 338 2.0 6.0 0.00 0.00 0.00 81 1013.1
20260502023813 58 203 2.0 6.0 0.00 0.00 0.00 81 1012.4
20260502023302 59 68 2.0 4.0 0.00 0.00 0.00 81 1012.2
20260502022753 59 90 2.0 4.0 0.00 0.00 0.00 80 1012.1
20260502022242 59 158 2.0 4.0 0.00 0.00 0.00 80 1012.2
20260502021732 59 23 2.0 4.0 0.00 0.00 0.00 80 1012.2
20260502021223 59 45 2.0 4.0 0.00 0.00 0.00 79 1011.9
20260502020712 59 203 2.0 4.0 0.00 0.00 0.00 79 1012.0
20260502020202 59 248 1.0 4.0 0.00 0.00 0.00 79 1012.0
20260502015652 59 158 2.0 4.0 0.00 0.00 0.00 78 1011.9
20260502015141 59 158 2.0 7.0 0.00 0.00 0.00 78 1012.1
20260502014121 60 180 2.0 4.0 0.00 0.00 0.00 77 1012.2
20260502013612 60 135 2.0 4.0 0.00 0.00 0.00 76 1012.0
20260502013101 60 113 2.0 8.0 0.00 0.00 0.00 76 1011.7
20260502011530 60 0 2.0 6.0 0.00 0.00 0.00 75 1011.8
20260502011021 60 113 2.0 6.0 0.00 0.00 0.00 75 1011.7
20260502010510 60 68 2.0 6.0 0.00 0.00 0.00 74 1011.5
20260502010000 60 90 2.0 7.0 0.00 0.00 0.00 74 1011.4
20260502005451 61 0 2.0 7.0 0.00 0.00 0.00 73 1011.4
20260502004940 61 135 2.0 8.0 0.00 0.00 0.00 73 1011.3
20260502004430 61 293 3.0 8.0 0.00 0.00 0.00 74 1011.1
20260502003920 61 23 2.0 6.0 0.00 0.00 0.00 74 1010.8
20260502003409 62 113 2.0 7.0 0.00 0.00 0.00 75 1010.7
20260502002859 62 113 2.0 7.0 0.00 0.00 0.00 74 1010.4
20260502002348 62 270 2.0 6.0 0.00 0.00 0.00 75 1010.6
20260502001329 63 90 2.0 6.0 0.00 0.00 0.00 77 1010.5
20260502000819 63 203 3.0 7.0 0.00 0.00 0.00 77 1010.2
20260502000310 63 90 2.0 7.0 0.00 0.00 0.00 78 1010.3
20260501235758 64 90 2.0 7.0 0.00 0.00 0.00 79 1010.4
20260501234738 64 90 3.0 7.0 0.00 0.00 0.00 80 1009.9
20260501234228 64 45 4.0 7.0 0.00 0.00 0.00 83 1009.8
20260501233718 64 270 2.0 4.0 0.00 0.00 0.00 84 1009.6
20260501232148 63 158 1.0 2.0 0.00 0.00 0.00 86 1009.0
20260501225844 62 68 1.0 4.0 0.00 0.00 0.00 88 1008.9
20260501225334 63 248 1.0 4.0 0.00 0.00 0.00 88 1009.0
20260501224824 63 45 0.0 2.0 0.00 0.00 0.00 87 1008.8
20260501224315 63 68 1.0 2.0 0.00 0.00 0.00 86 1008.6
20260501223805 64 45 1.0 4.0 0.00 0.00 0.00 86 1008.4
20260501223254 64 68 1.0 4.0 0.00 0.00 0.00 86 1008.3
20260501222743 64 45 1.0 2.0 0.00 0.00 0.00 85 1008.4
20260501222234 64 45 1.0 2.0 0.00 0.00 0.00 85 1008.0
20260501221724 64 45 1.0 2.0 0.00 0.00 0.00 85 1008.1
20260501221215 64 68 1.0 2.0 0.00 0.00 0.00 85 1008.1
20260501220703 64 68 1.0 2.0 0.00 0.00 0.00 84 1008.2
20260501220153 64 68 1.0 2.0 0.00 0.00 0.00 84 1008.2
20260501215644 64 68 0.0 2.0 0.00 0.00 0.00 83 1008.2
20260501214623 65 68 1.0 4.0 0.00 0.00 0.00 82 1007.7
20260501214114 65 68 0.0 4.0 0.00 0.00 0.00 82 1007.9
20260501213603 65 68 1.0 4.0 0.00 0.00 0.00 81 1007.8
20260501213053 65 113 1.0 4.0 0.00 0.00 0.00 81 1007.8
20260501212543 66 23 1.0 4.0 0.00 0.00 0.00 80 1007.7
20260501212032 66 45 1.0 2.0 0.00 0.00 0.00 80 1007.8